• Join FlightAware (Why Join?)
  • Login
  • US Flag 
10:14PM EST


 

Airport Tracker/Info


-or-


 

Live Flight TrackerFlight Track Log ✈ GJS3649 ✈ 22-Apr-2013 ✈ KORD - KPWM

Flight Track Log - Related Links

Times and Time Zones

All times are in EDT time to prevent confusion due to time zone crossing. See the GJS3649 flight status page for this flight to view local times or setup timezone preferences in your user account.

Time Position Orientation Groundspeed Altitude Reporting Facility
EDT Latitude Longitude Course Direction KTS MPH feet Rate Location/Type
09:14AM 41.9167 -87.8833 66° East 191 220 2,900  Level Chicago TRACON
09:15AM 41.9333 -87.8000 75° East 246 283 4,700 1,500 Climbing Chicago TRACON
09:17AM 41.9789 -87.5994 73° East 287 330 7,700 1,800 Climbing Chicago Center
09:18AM 42.0275 -87.5150 52° Northeast 289 333 10,600 2,040 Climbing Chicago Center
09:19AM 42.2196 -87.1914 66° East  Level FlightAware Approximate
09:19AM 42.0819 -87.4192 53° Northeast 322 371 12,000  Level Chicago Center
09:20AM 42.1533 -87.2875 54° Northeast 362 417 14,500 2,460 Climbing Chicago Center
09:21AM 42.2150 -87.1775 53° Northeast 368 423 17,100 1,980 Climbing Chicago Center
09:22AM 42.2750 -87.0636 55° Northeast 374 430 18,700 1,500 Climbing Chicago Center
09:23AM 42.2847 -86.9200 85° East 388 447 20,200 1,500 Climbing Chicago Center
09:24AM 42.2914 -86.7706 86° East 395 455 21,800 1,500 Climbing Chicago Center
09:25AM 42.2961 -86.6150 88° East 411 473 23,400 1,500 Climbing Chicago Center
09:26AM 42.3031 -86.4350 87° East 420 483 25,000 1,380 Climbing Chicago Center
09:27AM 42.3092 -86.2744 87° East 428 493 26,300 1,200 Climbing Chicago Center
09:28AM 42.3150 -86.1122 87° East 435 501 27,500 1,140 Climbing Chicago Center
09:29AM 42.3131 -85.9122 91° East 446 513 28,700 1,020 Climbing Chicago Center
09:30AM 42.3106 -85.7447 91° East 449 517 29,700 1,080 Climbing Chicago Center
09:31AM 42.3086 -85.5747 91° East 453 521 31,000 1,320 Climbing Chicago Center
09:32AM 42.3064 -85.4047 91° East 455 524 32,500 1,260 Climbing Chicago Center
09:33AM 42.3042 -85.2394 91° East 447 514 33,700 1,020 Climbing Chicago Center
09:34AM 42.3008 -85.0761 92° East 440 506 34,700 600 Climbing Chicago Center
09:36AM 42.3003 -84.8928 90° East 442 509 35,000 120 Climbing Cleveland Center
09:37AM 42.2922 -84.7128 93° East 452 520 35,000  Level Cleveland Center
09:38AM 42.2856 -84.5467 93° East 453 521 35,000  Level Cleveland Center
09:39AM 42.2978 -84.3733 84° East 459 528 35,000  Level Cleveland Center
09:40AM 42.3219 -84.2006 79° East 459 528 35,000  Level Cleveland Center
09:41AM 42.3461 -84.0306 79° East 464 534 35,000  Level Cleveland Center
09:42AM 42.3719 -83.8575 79° East 464 534 35,000  Level Cleveland Center
09:43AM 42.3953 -83.6872 79° East 464 534 35,000  Level Cleveland Center
09:44AM 42.4086 -83.4967 85° East 471 542 35,000  Level Cleveland Center
09:45AM 42.4150 -83.3197 87° East 466 536 35,000  Level Cleveland Center
09:46AM 42.4233 -83.1486 86° East 459 528 35,000  Level Cleveland Center
09:47AM 42.4292 -82.9742 87° East 459 528 35,000  Level Cleveland Center
09:48AM 42.4347 -82.8028 87° East 459 528 35,000  Level Cleveland Center
09:49AM 42.4400 -82.6314 88° East 459 528 35,000  Level Cleveland Center
09:50AM 42.4450 -82.4544 88° East 459 528 35,000  Level Cleveland Center
09:51AM 42.4475 -82.2883 89° East 459 528 35,000  Level Cleveland Center
09:52AM 42.4539 -82.1336 87° East 459 528 35,000  Level Cleveland Center
09:53AM 42.4583 -81.9425 88° East 459 528 35,000  Level Cleveland Center
09:54AM 42.4619 -81.8047 88° East 454 522 35,000  Level Cleveland Center
09:55AM 42.4661 -81.5964 88° East 454 522 35,000  Level Cleveland Center
09:56AM 42.4697 -81.4275 88° East 454 522 35,000  Level Cleveland Center
09:57AM 42.4728 -81.2531 89° East 456 525 35,000  Level Cleveland Center
09:58AM 42.4758 -81.0842 89° East 451 519 35,000  Level Cleveland Center
09:59AM 42.4786 -80.9125 89° East 451 519 35,000  Level Cleveland Center
10:00AM 42.4808 -80.7381 89° East 457 526 35,000  Level Cleveland Center
10:01AM 42.4831 -80.5692 89° East 452 520 35,000  Level Cleveland Center
10:02AM 42.4831 -80.4114 90° East 457 526 35,000  Level Cleveland Center
10:03AM 42.4867 -80.2369 88° East 462 532 35,000  Level Cleveland Center
10:04AM 42.4861 -80.0681 90° East 455 524 35,000  Level Cleveland Center
10:05AM 42.4894 -79.8933 88° East 455 524 35,000  Level Cleveland Center
10:06AM 42.4903 -79.7217 90° East 460 529 35,000  Level Cleveland Center
10:07AM 42.4911 -79.5497 90° East 460 529 35,000  Level Cleveland Center
10:08AM 42.4936 -79.3781 89° East 460 529 35,000  Level Cleveland Center
10:09AM 42.4978 -79.2061 88° East 455 524 35,000  Level Cleveland Center
10:10AM 42.5083 -79.0369 85° East 455 524 35,000  Level Cleveland Center
10:11AM 42.5203 -78.8647 85° East 460 529 35,000  Level Cleveland Center
10:12AM 42.5322 -78.6953 84° East 460 529 35,000  Level Cleveland Center
10:13AM 42.5439 -78.5258 85° East 460 529 35,000  Level Cleveland Center
10:14AM 42.5533 -78.3564 86° East 460 529 35,000  Level Cleveland Center
10:15AM 42.5644 -78.1869 85° East 460 529 35,000  Level Cleveland Center
10:16AM 42.5733 -78.0147 86° East 460 529 35,000  Level Cleveland Center
10:17AM 42.5839 -77.8422 85° East 460 529 35,000  Level Cleveland Center
10:18AM 42.5942 -77.6583 86° East 455 524 35,000  Level Cleveland Center
10:19AM 42.6019 -77.4831 86° East 455 524 35,000  Level Cleveland Center
10:20AM 42.6139 -77.3103 85° East 462 532 35,000  Level Cleveland Center
10:22AM 42.6311 -76.9703 86° East 450 518 35,000  Level Boston Center
10:23AM 42.6400 -76.7986 86° East 456 525 35,000  Level Boston Center
10:24AM 42.6486 -76.6242 86° East 461 531 35,000  Level Boston Center
10:25AM 42.6569 -76.4467 86° East 461 531 35,000  Level Boston Center
10:26AM 42.6664 -76.2356 86° East 461 531 35,000  Level Boston Center
10:27AM 42.6761 -76.0608 86° East 461 531 35,000  Level Boston Center
10:28AM 42.6817 -75.8861 87° East 461 531 35,000  Level Boston Center
10:29AM 42.6869 -75.7083 88° East 461 531 35,000  Level Boston Center
10:30AM 42.6939 -75.5306 87° East 461 531 35,000  Level Boston Center
10:31AM 42.7006 -75.3558 87° East 461 531 35,000  Level Boston Center
10:32AM 42.7092 -75.1753 86° East 461 531 35,000  Level Boston Center
10:33AM 42.7133 -75.0003 88° East 466 536 35,000  Level Boston Center
10:34AM 42.7194 -74.8197 87° East 466 536 35,000  Level Boston Center
10:35AM 42.7250 -74.6389 88° East 471 542 35,000  Level Boston Center
10:36AM 42.7306 -74.4611 88° East 476 548 35,000  Level Boston Center
10:37AM 42.7383 -74.2464 87° East 476 548 35,000  Level Boston Center
10:38AM 42.7431 -74.0628 88° East 476 548 35,000  Level Boston Center
10:39AM 42.7478 -73.8792 88° East 476 548 35,000  Level Boston Center
10:40AM 42.8125 -73.6939 64° Northeast 476 548 35,000  Level Boston Center
10:41AM 42.8786 -73.5536 57° Northeast 476 548 35,000  Level Boston Center
10:42AM 42.9611 -73.4019 53° Northeast 482 555 35,000  Level Boston Center
10:43AM 43.0228 -73.2294 64° Northeast 492 566 35,000  Level Boston Center
10:44AM 43.0636 -73.0483 73° East 492 566 35,000 -300 Level Boston Center
10:45AM 43.1061 -72.8467 74° East 492 566 34,500 -1,320 Descending Boston Center
10:46AM 43.1419 -72.6847 73° East 492 566 32,400 -2,340 Descending Boston Center
10:47AM 43.1797 -72.5083 74° East 492 566 29,900 -2,400 Descending Boston Center
10:48AM 43.2172 -72.3375 73° East 479 551 27,600 -2,340 Descending Boston Center
10:49AM 43.2525 -72.1750 73° East 456 525 25,300 -2,100 Descending Boston Center
10:50AM 43.2853 -72.0150 74° East 443 510 23,100 -2,280 Descending Boston Center
10:51AM 43.3242 -71.8294 74° East 424 488 20,400 -2,640 Descending Boston Center
10:52AM 43.3564 -71.6719 74° East 400 460 17,900 -1,800 Descending Boston Center
10:53AM 43.3867 -71.5317 73° East 379 436 16,800 -1,620 Descending Boston Center
10:54AM 43.4108 -71.4142 74° East 366 421 14,700 -2,100 Descending Boston Center
10:55AM 43.4344 -71.2908 75° East 342 394 12,700 -1,800 Descending Boston Center
10:56AM 43.4603 -71.1614 75° East 317 365 11,100 -900 Descending Boston Center
10:57AM 43.4842 -71.0694 70° East 295 339 11,000 -300 Descending Boston Center
10:58AM 43.5142 -70.9572 70° East 284 327 10,600 -1,020 Descending Boston Center
10:59AM 43.5378 -70.8678 70° East 284 327 9,000 -1,800 Descending Boston Center
11:00AM 43.5678 -70.7725 66° East 272 313 7,100 -1,920 Descending Boston Center
11:01AM 43.5997 -70.6769 65° Northeast 249 287 5,200 -1,620 Descending Boston Center
11:02AM 43.6236 -70.6017 66° East 237 273 3,900 -1,080 Descending Boston Center
11:03AM 43.6494 -70.5233 65° Northeast 208 239 3,100 -900 Descending Boston Center
11:04AM 43.6547 -70.4686 82° East 173 199 2,200 -900 Descending Boston Center
11:05AM 43.6536 -70.4114 92° East 142 163 1,400 10,860 Descending Boston Center
11:06AM 43.6508 -70.3683 95° East 124 143 24,000 11,280 Climbing Boston Center
11:07AM 43.6478 -70.3197 95° East 124 143 24,000  Level Boston Center
11:08AM 43.6469 -70.2767 92° East 124 143 24,000  Level Boston Center
11:10AM 43.6333 -70.3000 101° East  Level FlightAware Approximate